Date,TemperatureHighF,TemperatureAvgF,TemperatureLowF,DewpointHighF,DewpointAvgF,DewpointLowF,HumidityHigh,HumidityAvg,HumidityLow,PressureMaxIn,PressureMinIn,WindSpeedMaxMPH,WindSpeedAvgMPH,GustSpeedMaxMPH,PrecipitationSumIn
2013-1-1,30,20,7,26,10,-3,91,65,44,0.00,40.00,14,-14,29,0.12
2013-1-2,17,8,-5,12,0,-12,86,67,53,0.00,40.00,18,-37,26,0.01
2013-1-3,14,2,-7,6,-10,-15,78,57,33,0.00,40.00,17,-8,23,0.00
2013-1-4,31,24,13,22,18,8,97,76,53,0.00,40.00,11,-9,27,0.11
2013-1-5,30,26,17,26,14,8,97,63,42,0.00,40.00,17,-21,32,0.43
2013-1-6,34,26,17,29,21,10,97,82,63,0.00,40.00,7,-4,11,0.14
2013-1-7,32,25,18,30,15,5,97,66,42,0.00,40.00,16,-22,25,0.22
2013-1-8,39,29,18,18,15,9,82,57,36,0.00,40.00,9,-3,17,0.00
2013-1-9,40,30,22,25,20,17,82,66,49,0.00,40.00,14,-11,37,0.00
2013-1-10,38,34,31,31,21,17,89,58,49,0.00,40.00,19,3,37,0.00
2013-1-11,32,29,24,30,23,18,97,77,55,0.00,40.00,12,-10,17,0.05
2013-1-12,38,34,30,38,34,30,97,97,97,0.00,40.00,9,-24,15,0.00
2013-1-13,45,38,34,44,38,33,98,97,97,0.00,40.00,12,-49,17,0.00
2013-1-14,52,41,31,52,34,20,98,76,37,0.00,40.00,16,-15,26,0.00
2013-1-15,31,29,27,25,21,18,87,70,59,0.00,40.00,7,-12,14,0.00
2013-1-16,28,26,24,27,25,20,97,94,72,0.00,40.00,9,-4,11,3.20
2013-1-17,32,25,11,30,17,-3,97,75,42,0.00,40.00,15,-38,28,0.00
2013-1-18,17,9,1,0,-8,-17,56,44,29,0.00,40.00,13,-16,26,0.00
2013-1-19,38,28,13,19,13,1,92,53,40,0.00,40.00,11,-9,17,0.01
2013-1-20,40,31,16,34,16,-7,97,53,29,0.00,40.00,16,-26,34,0.11
2013-1-21,20,15,10,16,1,-10,97,56,34,0.00,40.00,16,-24,28,0.09
2013-1-22,17,11,3,15,3,-15,97,71,38,0.00,40.00,16,-15,24,0.89
2013-1-23,3,-2,-9,-6,-17,-23,82,50,30,0.00,40.00,15,-1,27,0.00
2013-1-24,7,-2,-11,-14,-19,-22,61,44,28,0.00,40.00,21,-12,37,0.00
2013-1-25,13,4,-4,1,-12,-17,76,47,24,0.00,40.00,17,-27,26,0.04
2013-1-26,14,7,2,2,-6,-17,85,59,26,0.00,40.00,22,-12,32,0.00
2013-1-27,21,10,3,0,-8,-16,72,45,21,0.00,40.00,14,-20,27,0.00
2013-1-28,18,13,5,17,5,-12,97,71,36,0.00,40.00,8,-5,13,2.36
2013-1-29,29,23,17,28,22,17,97,96,91,0.00,40.00,11,-33,15,0.30
2013-1-30,50,38,29,50,38,28,98,97,97,0.00,40.00,13,-42,22,0.08
2013-1-31,50,32,23,49,17,2,97,56,38,0.00,40.00,18,-11,39,0.31
2013-2-1,23,18,12,17,7,-1,94,63,40,0.00,40.00,18,-14,29,0.08
2013-2-2,19,13,7,14,4,-1,90,66,44,0.00,40.00,9,-32,17,0.02
2013-2-3,25,18,9,16,9,5,97,69,45,0.00,40.00,9,-19,16,0.00
2013-2-4,24,17,11,10,0,-8,75,50,25,0.00,40.00,19,-36,41,0.00
2013-2-5,24,15,3,8,-2,-6,72,48,30,0.00,40.00,8,-24,14,0.00
2013-2-6,29,21,11,22,10,-11,97,67,31,0.00,40.00,14,-36,29,0.05
2013-2-7,20,12,4,-5,-9,-12,53,38,28,0.00,40.00,12,-23,18,0.00
2013-2-8,17,15,13,14,8,-8,97,78,33,0.00,40.00,7,-11,17,8.46
2013-2-9,15,11,6,15,3,-6,97,71,53,0.00,40.00,31,11,41,13.40
2013-2-10,28,15,2,0,-6,-10,62,41,20,0.00,40.00,15,-23,19,0.00
2013-2-11,34,24,19,33,16,-3,97,75,32,0.00,40.00,14,-15,20,0.97
2013-2-12,36,33,30,33,25,22,97,73,57,0.00,40.00,12,-16,29,0.14
2013-2-13,33,29,25,23,16,13,75,59,43,0.00,40.00,7,-5,14,0.00
2013-2-14,36,28,24,19,16,13,73,60,39,0.00,40.00,11,-25,17,0.00
2013-2-15,44,34,25,24,19,13,85,55,35,0.00,40.00,11,-9,26,0.00
2013-2-16,33,26,18,26,15,-1,97,65,40,0.00,40.00,19,-42,29,0.21
2013-2-17,18,12,7,2,-2,-6,63,52,42,0.00,40.00,26,-25,45,0.00
2013-2-18,23,14,6,-3,-8,-13,62,39,19,0.00,40.00,21,-47,38,0.00
2013-2-19,36,26,12,32,9,-10,97,53,24,0.00,40.00,13,-9,23,0.54
2013-2-20,32,24,19,32,18,10,97,78,60,0.00,40.00,14,6,24,0.73
2013-2-21,21,17,13,16,9,3,90,70,51,0.00,40.00,19,-10,29,0.08
2013-2-22,35,27,19,18,15,12,92,64,40,0.00,40.00,17,-16,25,0.00
2013-2-23,29,28,26,29,24,15,97,87,59,0.00,40.00,11,-37,17,0.60
2013-2-24,32,30,27,32,29,26,97,97,97,0.00,40.00,12,-34,18,1.58
2013-2-25,32,29,27,30,28,26,97,95,86,0.00,40.00,12,-2,19,0.00
2013-2-26,35,31,28,32,29,27,97,92,73,0.00,40.00,7,-19,15,0.00
2013-2-27,33,30,28,32,29,27,97,96,88,0.00,40.00,7,-18,16,6.17
2013-2-28,37,32,27,37,32,27,97,97,96,0.00,40.00,7,-26,11,0.02
2013-3-1,34,31,28,33,27,22,97,85,62,0.00,40.00,14,-20,21,0.00
2013-3-2,32,28,23,26,24,18,97,85,58,0.00,40.00,16,10,26,0.11
2013-3-3,31,25,21,26,22,20,97,87,71,0.00,40.00,16,-20,24,0.20
2013-3-4,29,24,22,25,19,17,97,80,64,0.00,40.00,17,-33,27,0.14
2013-3-5,38,29,22,28,22,18,87,74,50,0.00,40.00,14,-14,22,0.23
2013-3-6,33,30,27,31,27,20,97,86,65,0.00,40.00,6,-4,13,0.11
2013-3-7,33,29,26,26,23,20,97,78,60,0.00,40.00,13,-1,21,0.49
2013-3-8,37,30,25,26,21,16,97,71,42,0.00,40.00,18,-11,29,1.05
2013-3-9,50,37,26,22,14,3,71,44,14,0.00,40.00,12,-14,18,0.00
2013-3-10,46,35,25,29,23,18,92,64,33,0.00,40.00,14,-1,18,0.00
2013-3-11,45,38,30,38,28,20,97,70,36,0.00,40.00,14,-35,23,0.00
2013-3-12,46,42,37,46,41,37,98,96,88,0.00,40.00,14,-12,23,0.57
2013-3-13,41,36,31,40,28,16,97,74,40,0.00,40.00,12,-14,22,0.00
2013-3-14,31,24,14,24,12,3,84,62,36,0.00,40.00,16,-14,30,0.16
2013-3-15,31,21,11,28,10,0,97,64,28,0.00,40.00,19,0,30,0.87
2013-3-16,28,23,17,20,10,4,88,62,35,0.00,40.00,13,-21,23,0.00
2013-3-17,25,20,13,14,4,-5,81,51,30,0.00,40.00,19,-7,35,0.00
2013-3-18,32,21,6,19,-4,-10,77,36,15,0.00,40.00,11,-39,17,0.01
2013-3-19,28,24,21,27,24,19,97,97,78,0.00,40.00,7,-32,19,6.32
2013-3-20,31,25,21,22,17,13,97,73,52,0.00,40.00,12,-2,26,0.07
2013-3-21,36,26,16,15,9,1,80,51,22,0.00,40.00,7,-33,16,0.00
2013-3-22,33,26,18,19,13,9,83,61,36,0.00,40.00,12,-16,24,0.00
2013-3-23,35,28,22,19,15,9,77,59,36,0.00,40.00,20,-5,44,0.16
2013-3-24,37,31,28,20,18,16,71,59,44,0.00,40.00,17,-13,26,0.01
2013-3-25,40,32,23,26,20,18,90,64,41,0.00,40.00,6,-28,11,0.00
2013-3-26,42,35,30,29,19,13,97,56,30,0.00,40.00,14,-51,26,0.01
2013-3-27,44,36,29,33,21,16,97,55,36,0.00,40.00,19,-36,29,0.18
2013-3-28,44,37,31,35,29,24,97,76,48,0.00,40.00,12,-16,18,0.12
2013-3-29,45,39,35,32,28,26,75,65,48,0.00,40.00,13,-23,21,0.00
2013-3-30,48,39,31,28,17,7,81,45,19,0.00,40.00,13,-17,22,0.00
2013-3-31,51,41,29,37,16,-100,97,41,21,0.00,40.00,12,-30,24,0.15
2013-4-1,50,36,26,43,29,4,98,79,30,0.00,40.00,13,-9,30,0.11
2013-4-2,30,25,21,18,5,1,70,42,31,0.00,40.00,15,-7,29,0.04
2013-4-3,38,28,21,9,4,-3,49,35,17,0.00,40.00,20,-20,37,0.00
2013-4-4,49,36,24,13,8,0,56,32,15,0.00,40.00,12,-2,21,0.00
2013-4-5,51,39,29,24,18,10,75,46,23,0.00,40.00,16,-13,27,0.00
2013-4-6,37,28,20,16,1,-6,56,33,16,0.00,40.00,22,-4,35,0.00
2013-4-7,53,38,27,36,14,0,78,36,23,0.00,40.00,17,-34,33,0.00
2013-4-8,56,46,41,40,30,22,92,57,26,0.00,40.00,15,-16,22,0.00
2013-4-9,56,46,39,49,39,30,98,79,45,0.00,40.00,13,-30,24,0.13
2013-4-10,51,44,41,47,43,38,98,95,80,0.00,40.00,9,-24,14,0.60
2013-4-11,41,37,34,41,27,10,97,69,34,0.00,40.00,14,-22,21,0.01
2013-4-12,34,29,26,29,25,12,97,85,40,0.00,40.00,7,-4,19,0.41
2013-4-13,48,37,29,38,31,24,97,80,40,0.00,40.00,7,-27,14,0.01
2013-4-14,44,38,34,36,29,20,97,73,40,0.00,40.00,11,-24,21,0.01
2013-4-15,56,42,29,31,27,22,97,61,30,0.00,40.00,11,-26,18,0.00
2013-4-16,59,48,37,53,39,25,98,73,46,0.00,40.00,16,-12,30,0.01
2013-4-17,56,48,40,51,29,21,98,53,26,0.00,40.00,18,1,29,0.00
2013-4-18,57,46,31,37,24,18,75,42,31,0.00,40.00,16,0,26,0.00
2013-4-19,70,59,49,62,54,37,98,85,60,0.00,40.00,18,4,37,0.35
2013-4-20,57,42,34,57,29,13,98,64,29,0.00,40.00,13,-42,32,0.12
2013-4-21,46,36,27,15,10,6,58,36,20,0.00,40.00,17,-6,27,0.00
2013-4-22,49,39,29,28,14,8,83,38,22,0.00,40.00,15,-16,23,0.00
2013-4-23,37,34,29,36,32,27,97,92,83,0.00,40.00,6,2,15,0.00
2013-4-24,73,53,37,45,37,24,97,63,18,0.00,40.00,12,-9,24,0.00
2013-4-25,57,48,41,50,27,15,92,48,21,0.00,40.00,16,-28,31,0.01
2013-4-26,53,45,35,31,23,16,61,42,29,0.00,40.00,9,-11,18,0.00
2013-4-27,62,49,36,35,25,11,80,44,14,0.00,40.00,11,-25,17,0.00
2013-4-28,67,53,38,33,30,27,73,43,23,0.00,40.00,13,-31,21,0.00
2013-4-29,65,54,45,35,31,25,61,41,26,0.00,40.00,11,-15,19,0.00
2013-4-30,69,58,49,29,24,17,41,27,19,0.00,40.00,12,-2,18,0.00
2013-5-1,72,58,42,31,23,16,48,27,12,0.00,40.00,11,-24,19,0.00
2013-5-2,76,58,46,38,32,18,69,38,18,0.00,40.00,12,-25,18,0.00
2013-5-3,65,51,37,42,34,25,85,54,32,0.00,40.00,11,-2,17,0.00
2013-5-4,70,56,43,46,34,19,97,51,15,0.00,40.00,13,-17,21,0.00
2013-5-5,68,52,36,36,29,23,84,46,18,0.00,40.00,12,-24,18,0.00
2013-5-6,74,57,39,43,32,22,92,47,14,0.00,40.00,11,-23,16,0.00
2013-5-7,78,64,49,50,40,23,94,48,14,0.00,40.00,12,-23,21,0.00
2013-5-8,69,61,53,64,57,49,98,88,50,0.00,40.00,14,-22,21,0.18
2013-5-9,64,58,54,62,57,54,98,94,76,0.00,40.00,12,-38,17,0.29
2013-5-10,74,61,49,61,51,-100,98,75,39,0.00,40.00,9,-18,14,0.00
2013-5-11,63,60,57,62,58,54,98,93,74,0.00,40.00,11,-22,19,0.28
2013-5-12,61,53,42,57,38,-100,98,61,28,0.00,40.00,10,-24,24,0.00
2013-5-13,47,41,37,28,23,20,62,49,36,0.00,40.00,9,-24,26,0.00
2013-5-14,52,43,36,32,24,18,78,49,26,0.00,40.00,16,5,23,0.00
2013-5-15,60,46,35,51,33,20,97,64,24,0.00,40.00,14,-11,23,0.09
2013-5-16,73,56,49,51,20,-100,98,51,19,0.00,40.00,16,-36,33,0.00
2013-5-17,63,51,44,41,31,-100,78,55,27,0.00,40.00,17,-20,27,0.00
2013-5-18,69,56,40,43,34,21,92,50,19,0.00,40.00,10,-18,17,0.00
2013-5-19,65,53,43,55,48,42,98,86,51,0.00,40.00,10,-17,18,0.06
2013-5-20,73,66,58,63,61,57,98,85,63,0.00,40.00,10,-19,19,0.00
2013-5-21,76,60,49,67,58,48,98,92,64,0.00,40.00,14,-36,26,0.68
2013-5-22,62,54,48,62,53,48,98,97,97,0.00,40.00,19,-34,27,0.61
2013-5-23,73,60,50,69,59,49,98,97,80,0.00,40.00,11,-21,26,0.00
2013-5-24,64,54,42,63,53,42,98,97,95,0.00,40.00,20,10,29,0.86
2013-5-25,43,39,32,42,38,31,97,97,97,0.00,40.00,21,0,34,1.67
2013-5-26,49,41,32,40,36,32,97,85,59,0.00,40.00,19,-37,35,0.40
2013-5-27,64,51,37,39,33,25,97,56,24,0.00,40.00,20,-36,29,0.00
2013-5-28,69,56,41,40,36,30,92,51,26,0.00,40.00,12,-10,16,0.00
2013-5-29,60,54,49,58,51,38,98,91,54,0.00,40.00,10,-30,15,0.01
2013-5-30,83,71,59,68,61,54,98,73,41,0.00,40.00,11,-3,21,0.00
2013-5-31,88,77,64,67,60,49,98,58,25,0.00,40.00,9,-26,17,0.00
2013-6-1,88,79,69,66,60,54,78,54,32,0.00,40.00,11,-3,19,0.00
2013-6-2,85,72,63,70,65,-100,98,84,47,0.00,40.00,16,-16,25,1.15
2013-6-3,74,65,54,64,55,42,98,73,39,0.00,40.00,9,-11,18,0.00
2013-6-4,64,54,47,42,38,34,69,54,37,0.00,40.00,17,-13,28,0.00
2013-6-5,69,58,45,44,37,29,93,50,26,0.00,40.00,12,-45,21,0.00
2013-6-6,67,59,49,56,43,30,98,58,34,0.00,40.00,13,-9,21,0.01
2013-6-7,54,50,48,54,49,47,98,97,97,0.00,40.00,7,-20,15,0.63
2013-6-8,65,57,49,60,55,48,98,94,76,0.00,40.00,11,-53,19,0.92
2013-6-9,72,63,54,58,51,44,98,69,37,0.00,40.00,12,-31,22,0.00
2013-6-10,67,59,52,62,54,45,98,84,48,0.00,40.00,9,-18,13,0.10
2013-6-11,55,53,51,55,53,50,98,97,97,0.00,40.00,7,-18,16,1.29
2013-6-12,61,55,52,57,53,51,98,92,75,0.00,40.00,15,-14,28,0.00
2013-6-13,62,55,49,58,52,44,98,91,51,0.00,40.00,7,-5,13,0.19
2013-6-14,73,60,51,58,49,38,98,71,29,0.00,40.00,12,5,23,0.00
2013-6-15,71,62,53,51,39,34,69,44,26,0.00,40.00,14,-22,22,0.00
2013-6-16,70,61,54,61,50,41,98,70,47,0.00,40.00,9,-18,17,0.02
2013-6-17,75,64,57,64,58,50,98,83,40,0.00,40.00,9,-11,20,0.24
2013-6-18,61,56,51,59,55,51,98,97,89,0.00,40.00,11,-11,16,0.31
2013-6-19,68,57,48,51,43,34,98,65,31,0.00,40.00,11,-25,19,0.00
2013-6-22,79,75,66,65,61,58,98,62,51,0.00,40.00,7,-32,17,0.00
2013-6-23,85,72,63,72,67,63,98,87,54,0.00,40.00,7,-16,13,0.00
2013-6-24,86,75,69,69,65,61,96,74,44,0.00,40.00,11,4,20,0.00
2013-6-25,84,72,66,70,66,60,98,82,46,0.00,40.00,10,-15,17,0.05
2013-6-26,74,67,63,72,67,63,98,97,89,0.00,40.00,9,-49,14,0.79
2013-6-27,72,66,63,71,66,62,98,98,95,0.00,40.00,12,-12,17,0.00
2013-6-28,68,62,56,67,61,55,98,98,97,0.00,40.00,12,7,18,0.58
2013-6-29,80,70,63,71,64,59,98,84,50,0.00,40.00,11,6,20,0.00
2013-6-30,79,70,66,67,65,61,98,86,57,0.00,40.00,10,3,13,0.00
2013-7-1,75,70,67,72,69,66,98,97,88,0.00,40.00,11,4,17,0.00
2013-7-2,74,68,60,73,68,60,98,97,92,0.00,40.00,14,6,21,6.08
2013-7-3,82,72,60,75,68,59,98,86,62,0.00,40.00,7,3,14,0.01
2013-7-4,87,78,68,74,70,65,98,79,50,0.00,40.00,7,-21,15,0.00
2013-7-5,88,80,71,74,70,63,98,73,44,0.00,40.00,6,3,13,0.00
2013-7-6,83,75,70,71,68,60,98,81,47,0.00,40.00,6,3,16,0.00
2013-7-7,83,75,67,74,65,61,97,72,50,0.00,40.00,4,-27,9,0.00
2013-7-8,80,70,67,73,65,-100,98,94,69,0.00,40.00,8,3,12,0.06
2013-7-9,75,67,63,70,66,62,98,95,78,0.00,40.00,11,6,17,0.00
2013-7-10,75,66,63,74,62,-100,98,95,98,0.00,40.00,14,8,22,0.91
2013-7-11,78,72,63,71,66,56,98,82,48,0.00,40.00,12,5,19,0.00
2013-7-12,76,67,60,61,58,52,98,76,45,0.00,40.00,7,4,11,0.00
2013-7-13,73,66,59,71,63,58,98,89,67,0.00,40.00,9,2,13,0.00
2013-7-14,83,74,67,73,68,65,98,84,56,0.00,40.00,8,-26,13,0.00
2013-7-15,86,77,68,72,65,59,98,69,39,0.00,40.00,11,5,18,0.00
2013-7-16,84,78,69,68,65,61,91,66,47,0.00,40.00,11,5,18,0.00
2013-7-17,89,79,67,70,66,61,98,67,40,0.00,40.00,6,-19,15,0.00
2013-7-18,89,77,70,74,68,63,98,79,43,0.00,40.00,10,4,14,1.28
2013-7-19,89,77,69,74,69,64,98,79,43,0.00,40.00,9,-12,21,0.51
2013-7-20,80,73,69,71,66,62,98,79,55,0.00,40.00,6,-17,21,0.00
2013-7-21,78,69,61,66,60,53,98,74,43,0.00,40.00,8,-29,13,0.00
2013-7-22,73,66,60,70,65,59,98,96,86,0.00,40.00,11,-30,17,0.14
2013-7-23,74,66,62,70,64,61,98,96,80,0.00,40.00,6,2,11,1.83
2013-7-24,73,65,52,68,60,46,98,84,55,0.00,40.00,15,-28,21,0.00
2013-7-25,67,58,48,60,50,45,96,77,52,0.00,40.00,9,4,18,0.00
2013-7-26,71,62,58,61,59,57,98,91,68,0.00,40.00,11,-14,17,0.12
2013-7-27,79,65,55,60,56,50,98,77,39,0.00,40.00,6,-79,11,0.00
2013-7-28,76,67,60,70,63,57,98,88,55,0.00,40.00,11,6,17,1.54
2013-7-29,77,69,62,69,62,52,98,78,54,0.00,40.00,9,-23,13,0.00
2013-7-30,74,66,58,57,53,48,96,65,40,0.00,40.00,10,4,17,0.00
2013-7-31,76,67,56,60,56,49,98,70,42,0.00,40.00,7,2,10,0.00
2013-8-1,73,65,60,63,61,58,98,88,58,0.00,40.00,10,-27,19,0.69
2013-8-2,76,68,61,67,57,47,98,72,37,0.00,40.00,10,-13,17,0.00
2013-8-3,74,66,58,61,53,48,98,64,42,0.00,40.00,11,5,22,0.00
2013-8-4,66,61,55,60,54,50,98,79,60,0.00,40.00,11,-42,17,0.00
2013-8-5,67,57,52,52,45,29,93,68,23,0.00,40.00,14,-24,26,0.00
2013-8-6,73,61,48,55,47,42,97,64,36,0.00,40.00,7,3,11,0.00
2013-8-7,74,65,58,60,54,50,96,72,42,0.00,40.00,10,6,17,0.00
2013-8-8,79,70,61,71,66,61,98,89,65,0.00,40.00,9,6,14,0.00
2013-8-9,72,70,67,71,69,67,98,98,98,0.00,40.00,12,5,17,0.28
2013-8-10,73,68,56,67,55,45,98,67,37,0.00,40.00,11,-34,26,0.00
2013-8-15,69,9,69,45,-82,-100,49,17,41,0.00,40.00,8,4,17,0.00
2013-8-16,-200,0,200,-100,-100,-100,43,22,43,0.00,40.00,2,2,7,0.00
2013-8-17,73,73,73,50,50,50,43,43,43,0.00,40.00,4,4,6,0.00
2013-8-18,70,55,68,59,27,-100,71,55,62,0.00,40.00,3,2,6,0.00
2013-8-19,-200,0,200,-100,-100,-100,41,30,38,0.00,40.00,7,5,12,0.00
2013-8-20,70,35,70,59,-20,-100,67,55,43,0.00,40.00,5,3,9,0.00
2013-8-21,71,68,63,61,60,58,95,77,63,0.00,40.00,2,2,6,0.00
2013-9-16,53,53,53,52,52,52,97,97,97,0.00,40.00,1,1,3,0.00
2013-9-20,70,70,70,54,54,54,56,56,56,0.00,40.00,7,7,12,0.00
2013-9-21,58,58,58,57,57,57,98,98,98,0.00,40.00,6,6,12,0.00
2013-9-22,-200,0,200,-100,-100,-100,0,0,100,0.00,40.00,8,8,15,0.00
2013-10-30,45,37,33,29,25,23,65,61,53,0.00,40.00,5,3,7,0.00
2013-10-31,42,42,42,41,41,41,97,97,97,0.00,40.00,9,9,13,0.00
2013-11-1,60,59,58,59,57,56,98,93,86,0.00,40.00,12,11,26,0.16
2013-11-2,55,54,53,40,39,38,61,56,52,0.00,40.00,4,2,10,0.00
2013-11-3,35,28,35,30,4,-100,80,64,80,0.00,40.00,15,13,22,0.00
2013-11-4,34,34,34,9,9,9,33,33,33,0.00,40.00,4,4,7,0.00